Regional Weather Roundup
Issued by NWS

Home | Current Version | Previous Version | Graphics & Text | Print | Product List | Glossary On
Versions: 1 2 3 4 5 6 7 8 9 10 11 12 13 14 15 16 17 18 19 20 21 22 23 24 25 26 27 28 29 30 31 32 33 34 35 36 37 38 39 40 41 42 43 44 45 46 47 48 49 50
000
ASUS43 KTOP 101208
RWRKS

WEATHER ROUNDUP FOR KANSAS
NATIONAL WEATHER SERVICE GOODLAND KS
600 AM CST SUN DEC 10 2017

NOTE:  "FAIR" INDICATES FEW OR NO CLOUDS BELOW 12,000 FEET WITH NO
SIGNIFICANT WEATHER AND/OR OBSTRUCTIONS TO VISIBILITY.

KSZ001>006-013>018-027>032-041>047-101300-
NORTHWEST KANSAS

CITY           SKY/WX    TMP DP  RH WIND       PRES   REMARKS
GOODLAND       CLEAR     33   5  30 W13       30.31R WCI  24
6HR MIN TEMP:  32; 6HR MAX TEMP:  37;

HAYS           CLEAR     37  12  35 NW10      30.23S WCI  30
HILL CITY      CLEAR     41  12  30 W12       30.25R
6HR MIN TEMP:  35; 6HR MAX TEMP:  42;

RUSSELL        CLEAR     32  16  51 W9        30.20S
6HR MIN TEMP:  28; 6HR MAX TEMP:  33;

$$

KSZ061>065-074>080-084>089-101300-
SOUTHWEST KANSAS

CITY           SKY/WX    TMP DP  RH WIND       PRES   REMARKS
DODGE CITY     CLEAR     36   9  32 W16       30.29S WCI  26
6HR MIN TEMP:  33; 6HR MAX TEMP:  40;

ELKHART        CLOUDY    39  10  30 W12       30.37S WCI  32
GARDEN CITY    CLOUDY    28   8  43 W13       30.31R WCI  17
6HR MIN TEMP:  28; 6HR MAX TEMP:  35;

GREAT BEND     CLEAR     36  12  37 W13       30.23R WCI  27
LIBERAL        CLOUDY    32   9  38 NW12      30.34S WCI  23
PRATT          CLEAR     35  10  34 NW15      30.24R WCI  26
6HR MIN TEMP:  34; 6HR MAX TEMP:  39;

$$

KSZ066>073-081>083-090>101-101300-
SOUTHEAST KANSAS

CITY           SKY/WX    TMP DP  RH WIND       PRES   REMARKS
CHANUTE        CLEAR     31  22  69 SW7       30.15S
6HR MIN TEMP:  26; 6HR MAX TEMP:  32;

COFFEYVILLE    CLEAR     29  23  78 S7        30.19S
6HR MIN TEMP:  23; 6HR MAX TEMP:  30;

HUTCHINSON     CLEAR     32  16  51 NW10      30.19S WCI  24
6HR MIN TEMP:  23; 6HR MAX TEMP:  33;

MEDICINE LODGE   N/A     34  15  46 W5        30.25R
NEWTON         CLOUDY    31  17  56 W10       30.18S WCI  22
PARSONS        CLEAR     24  20  84 CALM      30.18S
6HR MIN TEMP:  19; 6HR MAX TEMP:  29;

WICHITA INTL   CLEAR     39  17  41 NW13      30.19R WCI  31
6HR MIN TEMP:  27; 6HR MAX TEMP:  39;

WICHITA JABRA  CLOUDY    35  18  49 W13       30.18R WCI  26
6HR MIN TEMP:  34; 6HR MAX TEMP:  39;

WICHITA MCCONL CLOUDY    36  15  41 W6        30.19R
WINFIELD       CLOUDY    30  19  63 W5        30.21S
6HR MIN TEMP:  24; 6HR MAX TEMP:  32;

$$

KSZ007>012-019>026-033>040-048>060-102>105-101300-
NORTHEAST KANSAS

CITY           SKY/WX    TMP DP  RH WIND       PRES   REMARKS
CONCORDIA      CLEAR     37  16  42 W13       30.14R WCI  29
6HR MIN TEMP:  34; 6HR MAX TEMP:  40;

EMPORIA        CLEAR     36  17  46 W10       30.13S WCI  28
6HR MIN TEMP:  25; 6HR MAX TEMP:  41;

LAWRENCE       CLEAR     27  20  75 W7        30.09R
6HR MIN TEMP:  20; 6HR MAX TEMP:  30;

MANHATTAN      CLEAR     28  18  66 CALM      30.13R
6HR MIN TEMP:  25; 6HR MAX TEMP:  33;

MARYSVILLE     CLEAR     37  19  48 NW12      30.09S WCI  30
OLATHE IND     CLEAR     30  22  72 SW9       30.09R
6HR MIN TEMP:  23; 6HR MAX TEMP:  32;

OLATHE EXE     CLEAR     31  22  69 W9        30.08R
6HR MIN TEMP:  26; 6HR MAX TEMP:  33;

SALINA         CLEAR     42  16  34 NW14      30.17R
6HR MIN TEMP:  31; 6HR MAX TEMP:  45;

TOPEKA BILLARD CLEAR     34  22  61 W8        30.10R
6HR MIN TEMP:  22; 6HR MAX TEMP:  34;

TOPEKA FORBES  CLEAR     38  21  50 W9        30.09R
6HR MIN TEMP:  26; 6HR MAX TEMP:  38;

$$




USA.gov is the U.S. government's official web portal to all federal, state and local government web resources and services.